GW7195 Weather Reports


time (UTC)temp
F
wind
direction
speed
knots
gust
knots
rain 1hr
in
rain 24hr
in
rain mn
in
humidity
%
barometer
mb
20260508064637 43 196 1.7 1.7 0.00 0.00 0.00 61 822.6
20260508064135 43 178 0.0 0.9 0.00 0.00 0.00 61 822.2
20260508063632 43 157 0.0 0.9 0.00 0.00 0.00 59 822.6
20260508063130 43 182 0.0 0.9 0.00 0.00 0.00 66 822.6
20260508062627 44 180 0.0 0.0 0.00 0.00 0.00 60 822.2
20260508062123 44 107 2.6 2.6 0.00 0.00 0.00 58 822.6
20260508061621 45 168 0.0 0.0 0.00 0.00 0.00 59 822.2
20260508061118 45 189 0.9 1.7 0.00 0.00 0.00 60 822.2
20260508060615 45 175 0.9 1.7 0.00 0.00 0.00 58 822.6
20260508060112 44 184 0.9 1.7 0.00 0.02 0.02 60 822.6
20260508055608 44 180 0.0 0.9 0.00 0.02 0.02 61 822.2
20260508055105 44 185 0.0 0.9 0.00 0.02 0.02 60 822.6
20260508054601 43 176 0.9 0.9 0.00 0.02 0.02 61 822.6
20260508054059 43 174 0.9 1.7 0.00 0.02 0.02 63 822.6
20260508053555 43 185 1.7 1.7 0.00 0.02 0.02 62 822.2
20260508053053 44 186 1.7 1.7 0.00 0.02 0.02 58 822.2
20260508052551 44 187 1.7 1.7 0.00 0.02 0.02 60 822.2
20260508052047 44 183 0.0 0.9 0.00 0.02 0.02 58 822.2
20260508051543 45 170 0.9 0.9 0.00 0.02 0.02 56 822.2
20260508051039 46 164 0.9 0.9 0.00 0.02 0.02 57 822.2
20260508050535 45 185 1.7 2.6 0.00 0.02 0.02 60 822.2
20260508050033 46 204 0.9 1.7 0.00 0.02 0.02 57 822.2
20260508045529 45 181 0.9 0.9 0.00 0.02 0.02 60 822.2
20260508045027 45 186 0.9 1.7 0.00 0.02 0.02 58 822.2
20260508044524 46 190 1.7 2.6 0.00 0.02 0.02 56 822.2
20260508044019 45 162 1.7 2.6 0.00 0.02 0.02 59 822.2
20260508043516 44 190 2.6 2.6 0.00 0.02 0.02 62 822.6
20260508043014 44 163 0.9 0.9 0.00 0.02 0.02 66 822.2
20260508042510 43 192 0.9 0.9 0.00 0.02 0.02 64 822.2
20260508042008 42 213 0.9 1.7 0.00 0.02 0.02 67 822.2
20260508041504 42 213 0.9 0.9 0.00 0.02 0.02 71 822.2
20260508041001 42 216 0.9 0.9 0.00 0.02 0.02 69 822.2
20260508040458 42 215 0.9 1.7 0.00 0.02 0.02 70 822.6
20260508035956 43 226 0.0 0.9 0.00 0.02 0.02 69 822.2
20260508035452 44 227 0.0 0.0 0.00 0.02 0.02 66 822.6
20260508034949 44 227 0.0 0.0 0.00 0.02 0.02 63 822.6
20260508034446 45 226 1.7 1.7 0.00 0.02 0.02 58 822.6
20260508033943 44 185 0.9 0.9 0.00 0.02 0.02 66 822.2
20260508033441 45 164 0.0 0.0 0.00 0.02 0.02 60 822.2
20260508032938 46 150 2.6 2.6 0.00 0.02 0.02 59 822.6
20260508032435 46 164 0.0 0.0 0.00 0.02 0.02 60 822.2
20260508031932 46 215 0.0 0.9 0.00 0.02 0.02 58 822.2
20260508031430 47 215 0.9 0.9 0.00 0.02 0.02 54 822.2
20260508030925 47 210 0.9 0.9 0.00 0.02 0.02 53 821.9
20260508030422 48 165 0.0 0.0 0.00 0.02 0.02 55 821.9
20260508025919 48 221 0.9 1.7 0.00 0.02 0.02 53 822.2
20260508025416 48 255 0.9 1.7 0.00 0.02 0.02 53 821.9
20260508024913 48 188 4.3 7.8 0.00 0.02 0.02 52 822.2
20260508024409 48 198 1.7 1.7 0.00 0.02 0.02 53 821.9
20260508023906 48 142 8.7 12.2 0.00 0.02 0.02 50 822.2
20260508023403 49 216 2.6 2.6 0.00 0.02 0.02 51 821.9
20260508022900 48 147 0.9 1.7 0.00 0.02 0.02 51 822.2
20260508022355 48 217 0.9 0.9 0.00 0.02 0.02 54 821.9
20260508021853 48 184 0.9 0.9 0.00 0.02 0.02 56 821.9
20260508021349 49 221 0.9 1.7 0.00 0.02 0.02 54 821.9
20260508020845 48 140 4.3 5.2 0.00 0.02 0.02 51 821.9
20260508020343 49 165 0.0 0.0 0.00 0.02 0.02 53 821.9
20260508015840 49 161 0.0 0.0 0.00 0.02 0.02 51 821.9
20260508015337 50 161 0.0 0.9 0.00 0.02 0.02 50 821.9
20260508014834 50 213 2.6 2.6 0.00 0.02 0.02 49 821.5
20260508014331 50 212 0.0 0.0 0.00 0.02 0.02 50 821.9
20260508013831 49 142 1.7 2.6 0.00 0.02 0.02 51 821.5
20260508013328 49 211 0.9 0.9 0.00 0.02 0.02 51 821.5
20260508012826 49 218 0.9 0.9 0.00 0.02 0.02 49 821.5
20260508012323 50 235 1.7 1.7 0.00 0.02 0.02 57 821.5
20260508011821 50 197 0.0 0.0 0.00 0.02 0.02 52 821.1
20260508011318 51 214 0.0 0.0 0.00 0.02 0.02 47 821.1
20260508010815 51 253 0.9 0.9 0.00 0.02 0.02 47 821.5
20260508010313 51 104 5.2 7.8 0.00 0.02 0.02 47 821.1
20260508005809 52 139 1.7 1.7 0.00 0.02 0.02 46 821.1
20260508005306 53 167 1.7 1.7 0.00 0.02 0.02 45 821.1
20260508004802 52 145 2.6 2.6 0.00 0.02 0.02 45 821.1
20260508004258 53 184 1.7 1.7 0.00 0.02 0.02 46 821.1
20260508003755 54 159 3.5 5.2 0.00 0.02 0.02 44 821.1
20260508003253 55 125 4.3 6.1 0.00 0.02 0.02 41 821.1
20260508002749 55 160 6.1 7.0 0.00 0.02 0.02 43 820.8
20260508002246 54 147 0.9 0.9 0.00 0.02 0.02 43 820.8
20260508001742 56 168 9.6 11.3 0.00 0.02 0.02 42 821.1
20260508001238 55 136 6.1 7.8 0.00 0.02 0.02 43 821.1
20260508000734 55 152 7.0 12.2 0.00 0.02 0.02 43 821.1
20260508000234 55 115 3.5 5.2 0.00 0.02 0.02 42 821.1
20260507235728 55 175 6.1 7.8 0.00 0.02 0.02 42 821.1
20260507235225 55 176 4.3 5.2 0.00 0.02 0.02 43 821.1
20260507234722 53 133 2.6 4.3 0.00 0.02 0.02 44 821.1
20260507234219 53 138 3.5 5.2 0.00 0.02 0.02 42 820.8
20260507233715 54 187 0.9 0.9 0.00 0.02 0.02 43 821.1
20260507233213 56 182 4.3 7.8 0.00 0.02 0.02 41 820.8
20260507232710 57 123 4.3 6.1 0.00 0.02 0.02 38 821.1
20260507232207 56 174 1.7 6.1 0.00 0.02 0.02 40 820.8
20260507231704 55 215 6.1 7.8 0.00 0.02 0.02 40 821.1
20260507231201 58 153 9.6 11.3 0.00 0.02 0.02 39 820.8
20260507230657 57 109 1.7 1.7 0.00 0.02 0.02 40 821.1
20260507230155 57 156 4.3 5.2 0.00 0.02 0.02 41 820.8
20260507225654 58 102 4.3 7.0 0.00 0.02 0.02 40 821.1
20260507225151 57 47 2.6 5.2 0.00 0.02 0.02 41 820.8
20260507224647 55 110 2.6 4.3 0.00 0.02 0.02 43 821.1
20260507224143 55 168 2.6 4.3 0.00 0.02 0.02 42 821.1
20260507223640 54 151 3.5 4.3 0.00 0.02 0.02 42 821.1
20260507223137 54 112 6.1 7.0 0.00 0.02 0.02 43 820.8
20260507222633 55 138 2.6 2.6 0.00 0.02 0.02 43 821.1
20260507222130 54 182 0.0 0.0 0.00 0.02 0.02 45 821.1
20260507221626 53 106 4.3 6.1 0.00 0.02 0.02 44 821.1
20260507221123 53 73 2.6 2.6 0.00 0.02 0.02 43 821.1
20260507220620 52 136 0.9 1.7 0.00 0.02 0.02 45 821.1
20260507220118 52 172 0.9 2.6 0.00 0.02 0.02 46 821.1
20260507215613 53 177 0.9 0.9 0.00 0.02 0.02 46 821.5
20260507215112 53 151 2.6 4.3 0.00 0.02 0.02 43 821.5
20260507214609 52 211 3.5 4.3 0.00 0.02 0.02 43 821.9
20260507214104 53 167 3.5 5.2 0.00 0.02 0.02 45 821.9
20260507213601 53 156 2.6 4.3 0.00 0.02 0.02 44 821.5
20260507213058 55 122 4.3 7.0 0.00 0.02 0.02 43 821.9
20260507212554 54 168 3.5 5.2 0.00 0.02 0.02 45 821.9
20260507212051 53 107 5.2 6.1 0.00 0.02 0.02 46 821.9
20260507211548 52 175 1.7 1.7 0.00 0.02 0.02 47 821.9
20260507211044 53 60 4.3 5.2 0.00 0.02 0.02 46 821.9
20260507210541 55 158 2.6 4.3 0.00 0.02 0.02 45 821.9
20260507210038 54 117 6.1 11.3 0.00 0.02 0.02 47 821.9
20260507205534 55 160 0.9 0.9 0.00 0.02 0.02 47 821.9
20260507205031 55 165 3.5 5.2 0.00 0.02 0.02 47 822.2
20260507204527 53 179 1.7 2.6 0.00 0.02 0.02 50 822.2
20260507204025 51 146 4.3 6.1 0.00 0.02 0.02 48 822.6
20260507203523 52 190 1.7 1.7 0.00 0.02 0.02 47 822.2
20260507203020 53 150 4.3 6.1 0.00 0.02 0.02 49 821.9
20260507202515 53 190 0.0 0.0 0.00 0.02 0.02 54 822.2
20260507202012 51 123 2.6 5.2 0.00 0.02 0.02 49 822.2
20260507201508 52 168 7.8 9.6 0.00 0.02 0.02 48 822.6
20260507201004 52 157 2.6 4.3 0.00 0.02 0.02 53 822.2
20260507200459 51 85 7.0 8.7 0.00 0.02 0.02 50 822.6
20260507195955 52 176 1.7 1.7 0.00 0.02 0.02 51 822.6
20260507195453 51 127 9.6 11.3 0.00 0.02 0.02 48 822.6
20260507194950 51 135 2.6 4.3 0.00 0.02 0.02 50 822.6
20260507194447 50 77 5.2 7.8 0.00 0.02 0.02 50 822.2
20260507193942 50 149 4.3 6.1 0.00 0.02 0.02 51 822.6
20260507193440 50 155 2.6 4.3 0.00 0.02 0.02 51 822.6
20260507192937 50 92 0.9 1.7 0.00 0.02 0.02 53 822.6
20260507192433 53 152 2.6 5.2 0.00 0.02 0.02 50 822.6
20260507191930 52 61 2.6 2.6 0.00 0.02 0.02 50 822.6
20260507191426 51 150 6.1 8.7 0.00 0.02 0.02 50 822.6
20260507190922 49 122 5.2 8.7 0.00 0.02 0.02 55 822.6
20260507190420 48 173 4.3 5.2 0.00 0.02 0.02 59 822.6
20260507185919 48 146 0.9 1.7 0.01 0.02 0.02 56 822.6
20260507185416 48 191 0.0 0.0 0.01 0.02 0.02 61 822.6
20260507184913 48 153 0.9 0.9 0.01 0.02 0.02 60 822.6
20260507184410 48 162 0.0 0.9 0.01 0.02 0.02 62 822.6
20260507183908 48 117 0.9 1.7 0.00 0.01 0.01 59 823.0
20260507183405 49 171 0.9 0.9 0.00 0.01 0.01 57 822.6
20260507182902 49 76 2.6 2.6 0.00 0.01 0.01 55 822.6
20260507182357 48 303 1.7 1.7 0.00 0.01 0.01 59 822.6
20260507181854 48 265 1.7 2.6 0.00 0.01 0.01 58 822.6
20260507181350 47 344 2.6 2.6 0.00 0.01 0.01 60 822.6
20260507180847 45 280 1.7 1.7 0.00 0.01 0.01 76 822.6
20260507180344 43 186 0.0 0.0 0.00 0.01 0.01 82 823.0
20260507175839 42 186 0.0 0.0 0.00 0.01 0.01 83 823.0
20260507175337 41 186 0.0 0.0 0.00 0.01 0.01 87 823.0
20260507174834 41 186 0.0 0.0 0.00 0.01 0.01 88 823.3
20260507174332 40 192 0.0 0.9 0.00 0.01 0.01 81 823.3
20260507173829 40 191 0.0 0.9 0.00 0.01 0.01 86 823.3
20260507173326 40 220 0.0 0.0 0.00 0.01 0.01 81 823.3
20260507172822 41 221 0.0 0.9 0.00 0.01 0.01 80 823.3
20260507172319 41 223 0.9 1.7 0.00 0.01 0.01 76 823.3
20260507171815 41 184 0.9 0.9 0.00 0.01 0.01 74 823.3
20260507171312 41 180 0.9 0.9 0.00 0.01 0.01 75 823.3
20260507170809 41 149 4.3 5.2 0.00 0.01 0.01 73 823.3
20260507170305 41 159 4.3 5.2 0.00 0.01 0.01 73 823.7
20260507165801 41 180 5.2 6.1 0.00 0.01 0.01 71 823.3
20260507165257 41 173 6.1 7.0 0.00 0.01 0.01 70 823.3
20260507164754 40 144 4.3 7.0 0.00 0.01 0.01 74 823.7
20260507164251 41 147 1.7 2.6 0.00 0.01 0.01 78 823.3
20260507163748 39 159 2.6 4.3 0.00 0.01 0.01 74 823.7
20260507163246 38 181 2.6 2.6 0.00 0.01 0.01 91 823.7
20260507162741 38 175 0.9 0.9 0.00 0.01 0.01 86 823.3
20260507162237 38 182 0.0 0.0 0.00 0.01 0.01 89 823.7
20260507161735 39 179 0.9 1.7 0.00 0.01 0.01 91 823.3
20260507161231 39 192 0.0 0.0 0.00 0.01 0.01 92 823.7
20260507160726 39 203 0.9 0.9 0.00 0.01 0.01 90 823.7
20260507160223 39 160 3.5 4.3 0.00 0.01 0.01 89 823.7
20260507155720 40 178 0.0 0.9 0.01 0.01 0.01 86 823.7
20260507155216 39 176 0.0 0.9 0.01 0.01 0.01 83 823.7
20260507154712 40 156 0.9 1.7 0.00 0.00 0.00 79 823.7
20260507154210 40 187 0.0 0.0 0.00 0.00 0.00 80 823.7
20260507153707 41 187 0.0 0.0 0.00 0.00 0.00 80 823.7
20260507153203 41 182 0.0 0.9 0.00 0.00 0.00 77 823.7
20260507152659 40 168 0.9 0.9 0.00 0.00 0.00 78 823.7
20260507152155 41 171 2.6 2.6 0.00 0.00 0.00 77 823.7
20260507151652 42 215 0.0 0.0 0.00 0.00 0.00 77 823.3
20260507151148 44 186 0.0 0.0 0.00 0.00 0.00 67 823.3
20260507150646 42 186 0.0 0.0 0.00 0.00 0.00 71 823.7
20260507150142 43 183 0.9 0.9 0.00 0.00 0.00 68 823.7
20260507145637 42 167 0.9 0.9 0.00 0.00 0.00 72 823.7
20260507145135 41 183 0.0 0.9 0.00 0.00 0.00 75 823.7
20260507144631 42 194 0.0 0.9 0.00 0.00 0.00 76 823.7
20260507144130 41 191 0.9 1.7 0.00 0.00 0.00 75 823.3
20260507143626 40 182 0.9 0.9 0.00 0.00 0.00 73 823.7
20260507143123 38 197 0.0 0.0 0.00 0.00 0.00 74 823.3
20260507142619 37 212 0.9 0.9 0.00 0.00 0.00 82 823.7
20260507142116 37 269 1.7 1.7 0.00 0.00 0.00 86 823.3
20260507141612 37 200 0.0 0.0 0.00 0.00 0.00 82 823.7
20260507141109 36 200 0.0 0.0 0.00 0.00 0.00 83 823.3
20260507140605 36 200 0.0 0.0 0.00 0.00 0.00 83 823.7
20260507135600 33 201 1.7 1.7 0.00 0.00 0.00 86 823.7
20260507135057 33 190 0.0 0.0 0.00 0.00 0.00 85 823.7
20260507134553 32 197 0.0 0.0 0.00 0.00 0.00 91 823.3
20260507134049 31 197 0.0 0.0 0.00 0.00 0.00 91 823.3
20260507133545 30 192 0.9 0.9 0.00 0.00 0.00 92 823.3
20260507133044 29 200 0.0 0.0 0.00 0.00 0.00 93 823.0
20260507132540 28 195 0.9 0.9 0.00 0.00 0.00 94 823.3
20260507132036 28 197 0.9 0.9 0.00 0.00 0.00 94 823.3
20260507131533 27 200 0.0 0.9 0.00 0.00 0.00 95 823.3
20260507131031 26 197 0.9 0.9 0.00 0.00 0.00 95 823.3
20260507130527 26 197 0.0 0.0 0.00 0.00 0.00 95 823.3
20260507130026 26 190 0.0 0.9 0.00 0.00 0.00 96 823.3
20260507125524 26 200 0.0 0.0 0.00 0.00 0.00 95 823.0
20260507125021 25 200 0.0 0.9 0.00 0.00 0.00 95 823.0
20260507124517 25 199 0.9 0.9 0.00 0.00 0.00 96 823.0
20260507124015 24 192 0.0 0.0 0.00 0.00 0.00 97 823.0
20260507123513 24 198 0.9 0.9 0.00 0.00 0.00 97 823.0
20260507123010 23 198 0.0 0.0 0.00 0.00 0.00 98 823.0
20260507122504 23 198 0.0 0.0 0.00 0.00 0.00 98 823.0
20260507122001 23 194 0.9 0.9 0.00 0.00 0.00 98 823.0
20260507121456 23 196 0.0 0.0 0.00 0.00 0.00 98 823.0
20260507120952 23 198 0.9 1.7 0.00 0.00 0.00 97 823.0
20260507120449 23 198 0.9 0.9 0.00 0.00 0.00 98 823.3
20260507115946 23 200 0.0 0.0 0.00 0.00 0.00 97 823.0
20260507115442 23 198 0.9 0.9 0.00 0.00 0.00 97 823.0
20260507114938 23 197 0.9 0.9 0.00 0.00 0.00 98 823.0
20260507114434 23 198 0.0 0.9 0.00 0.00 0.00 97 822.6
20260507113932 22 197 0.0 0.0 0.00 0.00 0.00 97 823.0
20260507113428 22 198 0.9 0.9 0.00 0.00 0.00 98 823.0
20260507112926 23 191 0.9 1.7 0.00 0.00 0.00 97 823.3
20260507112423 23 185 2.6 2.6 0.00 0.00 0.00 98 823.0
20260507111920 22 213 2.6 2.6 0.00 0.00 0.00 98 823.0
20260507111418 22 198 0.0 0.9 0.00 0.00 0.00 98 823.0
20260507110913 23 196 0.9 0.9 0.00 0.00 0.00 98 822.6
20260507110410 22 182 1.7 1.7 0.00 0.00 0.00 98 823.0
20260507105907 22 169 2.6 2.6 0.00 0.00 0.00 98 823.0
20260507105403 22 191 0.9 1.7 0.00 0.00 0.00 98 823.0
20260507104900 22 189 0.9 0.9 0.00 0.00 0.00 97 823.3
20260507104357 22 192 0.9 0.9 0.00 0.00 0.00 97 823.3
20260507103853 22 201 0.9 0.9 0.00 0.00 0.00 97 823.0
20260507103349 22 199 0.9 1.7 0.00 0.00 0.00 97 823.0
20260507102846 22 190 0.0 0.9 0.00 0.00 0.00 97 823.0
20260507102342 22 197 0.9 0.9 0.00 0.00 0.00 97 823.3
20260507101839 22 197 0.9 0.9 0.00 0.00 0.00 97 823.0
20260507101339 22 196 0.9 0.9 0.00 0.00 0.00 97 823.0
20260507100837 22 196 0.9 0.9 0.00 0.00 0.00 97 823.0
20260507100334 22 203 1.7 1.7 0.00 0.00 0.00 97 822.6
20260507095832 22 197 0.0 0.9 0.00 0.00 0.00 96 822.6
20260507095328 22 192 0.0 0.0 0.00 0.00 0.00 96 822.6
20260507094826 22 172 2.6 2.6 0.00 0.00 0.00 97 822.6
20260507094322 22 197 0.9 0.9 0.00 0.00 0.00 97 823.0
20260507093819 22 200 0.9 1.7 0.00 0.00 0.00 96 823.0
20260507093318 22 197 0.9 0.9 0.00 0.00 0.00 96 823.3
20260507092815 23 171 0.9 0.9 0.00 0.00 0.00 96 823.0
20260507092312 22 196 0.9 0.9 0.00 0.00 0.00 96 823.0
20260507091808 22 192 0.9 0.9 0.00 0.00 0.00 95 823.0
20260507091305 23 192 0.9 0.9 0.00 0.00 0.00 95 823.0
20260507090805 22 180 1.7 1.7 0.00 0.00 0.00 95 823.0
20260507090302 23 198 0.0 0.9 0.00 0.00 0.00 95 823.0
20260507085759 23 202 0.9 0.9 0.00 0.00 0.00 96 822.6
20260507085256 22 197 0.9 0.9 0.00 0.00 0.00 96 823.0
20260507084753 22 203 2.6 2.6 0.00 0.00 0.00 96 823.0
20260507084249 23 186 2.6 2.6 0.00 0.00 0.00 96 823.0
20260507083747 23 202 2.6 2.6 0.00 0.00 0.00 97 822.6
20260507083243 22 200 0.0 0.9 0.00 0.00 0.00 96 822.6
20260507082739 22 197 0.9 0.9 0.00 0.00 0.00 96 823.0
20260507082235 22 197 0.0 0.9 0.00 0.00 0.00 97 823.3
20260507081732 22 197 0.0 0.0 0.00 0.00 0.00 95 823.3
20260507081228 23 197 0.9 1.7 0.00 0.00 0.00 96 823.3
20260507080725 23 197 0.9 1.7 0.00 0.00 0.00 96 823.0
20260507080221 23 197 1.7 1.7 0.00 0.00 0.00 96 823.0
20260507075717 22 203 1.7 1.7 0.00 0.00 0.00 94 823.0
20260507075213 22 197 1.7 1.7 0.00 0.00 0.00 96 823.3
20260507074710 22 193 1.7 1.7 0.00 0.00 0.00 95 823.3
20260507074208 22 192 0.9 0.9 0.00 0.00 0.00 95 823.3
20260507073704 22 170 0.0 0.9 0.00 0.00 0.00 95 823.3
20260507073200 23 190 1.7 1.7 0.00 0.00 0.00 95 823.0
20260507072659 23 202 0.0 0.9 0.00 0.00 0.00 94 823.3
20260507072155 23 204 1.7 1.7 0.00 0.00 0.00 93 823.3
20260507071653 23 199 0.9 0.9 0.00 0.00 0.00 94 823.3
20260507071149 23 194 0.9 0.9 0.00 0.00 0.00 93 823.3
20260507070646 23 256 1.7 1.7 0.00 0.00 0.00 93 823.0
20260507070143 23 205 0.9 0.9 0.00 0.00 0.00 94 823.0
20260507065639 23 199 0.9 0.9 0.00 0.00 0.00 93 823.0
20260507065136 23 194 0.9 0.9 0.00 0.00 0.00 94 823.0